Winnemucca, NV

5:42 PM PDT on May 26, 2017 (GMT -0700)
Winnemucca Municipal

Weather History for KWMC - December, 2012

Change the Weather History Date:

Friday, December 28, 2012

  Actual Average Record
Temperature  
Mean Temperature 7 °F 29 °F  
Max Temperature 22 °F 40 °F 62 °F (2011)
Min Temperature -8 °F 17 °F -14 °F (1988)
Degree Days  
Heating Degree Days 58 36  
Month to date heating degree days 901 991  
Since 1 July heating degree days 2173 2559  
Cooling Degree Days 0 0  
Month to date cooling degree days 0 0  
Year to date cooling degree days 681 541  
Moisture  
Dew Point 3 °F    
Average Humidity 82    
Maximum Humidity 88    
Minimum Humidity 75    
Precipitation  
Precipitation T in 0.04 in 0.50 in (1951)
Month to date precipitation 1.58 0.84  
Year to date precipitation 5.71 8.19  
Snow  
Snow T in 0.20 in 1.50 in (1884)
Month to date snowfall 12.1 4.8  
Since 1 July snowfall 13.4 8.3  
Snow Depth 6.00 in    
Sea Level Pressure  
Sea Level Pressure 30.25 in    
Wind  
Wind Speed 7 mph (ENE)    
Max Wind Speed 16 mph    
Max Gust Speed 61 mph    
Visibility 7 miles    
Events Fog , Snow    
T = Trace of Precipitation, MM = Missing Value Source: NWS Daily Summary

Daily Weather History Graph

Daily Weather History Graph

Search for Another Location

Airport or City:

Trip Planner

Search our weather history database for the weather conditions in past years. The results will help you decide how hot, cold, wet, or windy it might be!

Date:

Astronomy

Dec. 28, 2012 Rise Set
Actual Time 7:15 AM PST 4:31 PM PST
Civil Twilight 6:44 AM PST 5:02 PM PST
Nautical Twilight 6:09 AM PST 5:36 PM PST
Astronomical Twilight 5:36 AM PST 6:10 PM PST
Moon 5:12 PM PST (12/28) 7:12 AM PST (12/28)
Length of Visible Light 10h 17m
Length of Day
9h 15m
Full, 100% of the Moon is Illuminated
Dec 28
Full
Jan 4
Last Quarter
Jan 11
New
Jan 18
First Quarter
Jan 26
Full

Hourly Weather History & Observations

Time (PST) Temp. Windchill Dew Point Humidity Pressure Visibility Wind Dir Wind Speed Gust Speed Precip Events Conditions
12:56 AM 1.0 °F -6.7 °F -2.0 °F 87% 30.30 in 10.0 mi SSE 3.5 mph - N/A   Clear
1:56 AM -0.9 °F -11.0 °F -5.1 °F 83% 30.32 in 10.0 mi SSE 4.6 mph - N/A   Clear
2:46 AM -5.8 °F - -9.4 °F 84% 30.17 in 10.0 mi Calm Calm - N/A   Partly Cloudy
2:56 AM -5.1 °F - -9.9 °F 80% 30.32 in 10.0 mi Calm Calm - N/A   Partly Cloudy
3:56 AM -2.0 °F - -6.0 °F 83% 30.32 in 7.0 mi Calm Calm - N/A   Partly Cloudy
4:05 AM -4.0 °F - -7.6 °F 85% 30.16 in 1.2 mi Calm Calm - N/A   Partly Cloudy
4:09 AM -2.2 °F - -5.8 °F 85% 30.16 in 0.2 mi Calm Calm - N/A Fog Light Freezing Fog
4:23 AM -2.2 °F - -5.8 °F 85% 30.16 in 1.2 mi Calm Calm - N/A   Partly Cloudy
4:25 AM -0.4 °F - -7.6 °F 72% 30.16 in 3.0 mi Calm Calm - N/A   Haze
4:56 AM -5.1 °F - -11.0 °F 76% 30.35 in 10.0 mi Calm Calm - N/A   Clear
5:37 AM -4.0 °F -12.4 °F -9.4 °F 78% 30.16 in 10.0 mi ESE 3.5 mph - N/A   Scattered Clouds
5:46 AM -5.8 °F -19.9 °F -11.2 °F 77% 30.16 in 10.0 mi SE 6.9 mph - N/A   Mostly Cloudy
5:56 AM -7.1 °F - -11.9 °F 79% 30.37 in 10.0 mi Calm Calm - N/A   Mostly Cloudy
6:08 AM -7.6 °F - -13.0 °F 77% 30.16 in 10.0 mi Calm Calm - N/A   Scattered Clouds
6:56 AM -4.0 °F -16.3 °F -8.0 °F 83% 30.40 in 10.0 mi NNE 5.8 mph - N/A   Mostly Cloudy
7:05 AM -4.0 °F - -9.4 °F 78% 30.16 in 1.2 mi Calm Calm - N/A   Haze
7:11 AM -4.0 °F -16.3 °F -9.4 °F 78% 30.16 in 0.2 mi WSW 5.8 mph - 0.00 in Snow Heavy Snow
7:40 AM -2.2 °F - -7.6 °F 78% 30.16 in 0.5 mi Calm Calm - 0.00 in   Haze
7:53 AM 3.2 °F -7.8 °F -0.4 °F 85% 30.16 in 0.2 mi ESE 5.8 mph - 0.00 in Fog Light Freezing Fog
7:56 AM 1.9 °F -7.6 °F -4.0 °F 76% 30.37 in 0.8 mi SSE 4.6 mph - 0.00 in   Haze
7:58 AM 1.4 °F -6.2 °F -4.0 °F 78% 30.16 in 1.5 mi South 3.5 mph - N/A   Haze
8:11 AM -0.4 °F - -5.8 °F 78% 30.16 in 1.0 mi Calm Calm - N/A   Haze
8:22 AM 3.2 °F -7.8 °F -2.2 °F 78% 30.16 in 1.8 mi ENE 5.8 mph - N/A   Haze
8:29 AM 10.4 °F -1.5 °F 6.8 °F 85% 30.16 in 3.0 mi ENE 8.1 mph - N/A   Overcast
8:56 AM 15.1 °F 2.5 °F 10.0 °F 80% 30.34 in 6.0 mi ENE 10.4 mph - N/A   Haze
9:56 AM 19.9 °F 11.1 °F 14.0 °F 78% 30.34 in 8.0 mi NE 6.9 mph - N/A   Overcast
10:27 AM 21.2 °F 10.1 °F 15.8 °F 80% 30.18 in 10.0 mi NE 10.4 mph - N/A   Mostly Cloudy
10:47 AM 21.2 °F 9.5 °F 15.8 °F 80% 30.17 in 10.0 mi NE 11.5 mph - N/A   Scattered Clouds
10:56 AM 21.9 °F 10.4 °F 15.1 °F 75% 30.31 in 10.0 mi NE 11.5 mph - N/A   Partly Cloudy
11:56 AM 18.0 °F 3.6 °F 14.0 °F 84% 30.30 in 8.0 mi NE 15.0 mph - N/A   Clear
12:56 PM 19.0 °F 6.8 °F 15.1 °F 85% 30.28 in 10.0 mi NE 11.5 mph - N/A   Clear
1:56 PM 19.9 °F 7.3 °F 15.1 °F 81% 30.28 in 10.0 mi NE 12.7 mph - N/A   Clear
2:56 PM 19.0 °F 7.5 °F 14.0 °F 81% 30.31 in 10.0 mi NE 10.4 mph - N/A   Clear
3:56 PM 19.0 °F 7.5 °F 14.0 °F 81% 30.29 in 10.0 mi NE 10.4 mph - N/A   Partly Cloudy
4:56 PM 17.1 °F 5.8 °F 12.9 °F 84% 30.31 in 10.0 mi ENE 9.2 mph - N/A   Clear
5:56 PM 17.1 °F 4.3 °F 12.9 °F 84% 30.32 in 10.0 mi ENE 11.5 mph 24.2 mph N/A   Clear
6:56 PM 17.1 °F 5.0 °F 12.9 °F 84% 30.30 in 10.0 mi ENE 10.4 mph - N/A   Overcast
7:56 PM 16.0 °F 5.3 °F 12.0 °F 84% 30.29 in 10.0 mi East 8.1 mph - N/A   Mostly Cloudy
8:56 PM 18.0 °F 7.7 °F 12.9 °F 81% 30.24 in 10.0 mi ENE 8.1 mph - N/A   Mostly Cloudy
9:56 PM 17.1 °F 8.7 °F 12.0 °F 81% 30.23 in 10.0 mi ENE 5.8 mph - N/A   Overcast
10:56 PM 16.0 °F 3.6 °F 10.9 °F 81% 30.22 in 10.0 mi ENE 10.4 mph - N/A   Partly Cloudy
11:56 PM 17.1 °F 6.6 °F 12.9 °F 84% 30.22 in 10.0 mi ENE 8.1 mph - N/A   Scattered Clouds